Location: Gadern
(49.5873°N, 8.8138°E)
Time: 09:41:26
(UTC+00:00)

Cosmos 1066 Rocket - Visible Passes

Search period start: 09 June 2026 00:00
Search period end: 19 June 2026 00:00
Orbit: 798 x 892 km, 81.2° (Epoch: 9 June)

Date Brightness Start Highest point End Pass type
(mag) Time Alt. Az. Time Alt. Az. Time Alt. Az.
9 Jun 5.6 21:33:00 10° SW 21:38:17 38° WNW 21:43:41 10° N visible
10 Jun 5.5 21:19:04 10° SW 21:24:27 42° WNW 21:29:58 10° N visible
11 Jun 5.3 21:05:08 10° SW 21:10:37 46° WNW 21:16:14 10° N visible
12 Jun 5.2 20:51:14 10° SSW 20:56:48 51° WNW 21:02:30 10° N visible
12 Jun 7.3 22:40:09 10° WNW 22:41:09 10° NW 22:42:10 10° NW visible
13 Jun 5.0 20:37:22 10° SSW 20:42:59 56° WNW 20:48:46 10° N visible
13 Jun 7.2 22:25:19 10° WNW 22:27:14 12° NW 22:29:10 10° NNW visible
14 Jun 4.9 20:23:30 10° SSW 20:29:11 62° WNW 20:35:00 10° N visible
14 Jun 7.1 22:10:49 10° WNW 22:13:19 13° NW 22:15:50 10° NNW visible
15 Jun 4.7 20:09:39 10° SSW 20:15:22 69° WNW 20:21:14 10° N visible
15 Jun 7.0 21:56:27 10° W 21:59:24 14° NW 22:02:23 10° NNW visible
16 Jun 7.0 21:42:10 10° W 21:45:30 15° NW 21:48:52 10° NNW visible
17 Jun 7.0 21:27:56 10° W 21:31:36 17° WNW 21:35:17 10° NNW visible
18 Jun 7.0 21:13:45 10° W 21:17:42 18° WNW 21:21:42 10° NNW visible
